Other Surface Observations
Issued by NWS Charleston, SC

Home | Current Version | Previous Version | Text Only | Print | Product List | Glossary On
Versions: 1 2 3 4 5 6 7 8 9 10 11 12 13 14 15 16 17 18 19 20 21 22 23 24 25 26 27 28 29 30 31 32 33 34 35 36 37 38 39 40 41 42 43 44 45 46 47 48 49 50
764
SXUS52 KCHS 190227
OSOCHS

MARINE OBSERVATIONS
NATIONAL WEATHER SERVICE CHARLESTON SC
1000 PM EDT WED OCT 18 2017

...DOWNTOWN CHARLESTON AND HARBOR...

CITY           SKY/WX    TMP DP  RH WIND       PRES   REMARKS
WATERFRONT PRK   N/A     69  63  81 NE9       30.10

...LAKE MOULTRIE...

CITY           SKY/WX    TMP DP  RH WIND       PRES   REMARKS
PINOPOLIS        N/A     68  61  77 NE10      30.19R

...LAKE AND SUPPLEMENTAL COASTAL OBSERVATIONS...

STATION/POSITION TIME  TEMP    WIND        PRES    WAVE   SWELL
                       AIR SEA DIR/SP/G            HT/PER HT/PER/DIR
                 (UTC) (F)     (DEG/KT/KT) (MB)    (FT/S) (FT/S/D)
FORT PULASKI     0200   70 73   40/ 12/ 16 1024.7
SAPELO ISLAND    0200   71      40/ 11     1023.0
WINYAH BAY       0145   65     360/  7     1025.0S
LAKE MURRAY      0220   59      CALM  /  2 1025.7
ACE BASIN NERRS  0145   63     360/  1     1025.0S


...C-MAN AND BUOY OBSERVATIONS...

STATION/POSITION TIME  TEMP    WIND        PRES    WAVE   SWELL
                       AIR SEA DIR/SP/G            HT/PER HT/PER/DIR
                 (UTC) (F)     (DEG/KT/KT) (MB)    (FT/S) (FT/S/D)
BUOY 41004       0210   74 80   40/ 21/ 27 1022.5
BUOY 41008       0150   74 78   40/ 21/ 25 1022.3R   7/ 7   3/120/10
FOLLY BEACH CMAN 0200   68      10/ 13/ 16 1025.0S
CAPERS NS BUOY   0208   66 75   20/ 16/ 21 1023.9F
FRIPP NS BUOY    0208   71      40/ 16/ 21   N/A
5E ST. MARYS GA  0200      78                N/A     7/10   2/ 90/11


STATION/POSITION TIME  TEMP    WIND        PRES    WAVE   SWELL
                       AIR SEA DIR/SP/G            HT/PER HT/PER/DIR
                 (UTC) (F)     (DEG/KT/KT) (MB)    (FT/S) (FT/S/D)
FRYING PAN BUOY  0210   72 76   30/ 21/ 25 1023.4
BUOY 41025       0150   74 82   90/ 14/ 17 1024.7S   6/ 9   5/110/ 9
CAPE LOOKOUT NC  0200   65      10/ 13/ 16 1024.9F
BUOY 41002       0150   77 80   70/ 21/ 25 1020.4R   9/ 9   5/ 80/ 9
BUOY 41010       NOT AVBL
ST AUGUSTINE FL  0200   75 78   30/ 18/ 21 1021.5R

$$




USA.gov is the U.S. government's official web portal to all federal, state and local government web resources and services.